Weather History for KRXE - March, 2014

Change the Weather History Date:

Saturday, March 15, 2014

  Actual Average Record
Temperature  
Mean Temperature 38 °F 34 °F  
Max Temperature 50 °F 44 °F 68 °F (2015)
Min Temperature 26 °F 24 °F 8 °F (1985)
Degree Days  
Heating Degree Days 27 31  
Month to date heating degree days 425 514  
Since 1 July heating degree days 6240 6487  
Cooling Degree Days 0 0  
Month to date cooling degree days 0 0  
Year to date cooling degree days 0 0  
Moisture  
Dew Point 16 °F    
Average Humidity 50    
Maximum Humidity 82    
Minimum Humidity 18    
Precipitation  
Precipitation T in 0.04 in 0.25 in (1982)
Month to date precipitation 0.47 0.43  
Year to date precipitation 1.87 2.00  
Sea Level Pressure  
Sea Level Pressure 30.31 in    
Wind  
Wind Speed 7 mph (WSW)    
Max Wind Speed 16 mph    
Max Gust Speed 23 mph    
Visibility 10 miles    
Events      
T = Trace of Precipitation, MM = Missing Value Source: NWS Daily Summary

Daily Weather History Graph

Daily Weather History Graph

Search for Another Location

Airport or City:

Trip Planner

Search our weather history database for the weather conditions in past years. The results will help you decide how hot, cold, wet, or windy it might be!

Date:

Astronomy

Mar. 15, 2014 Rise Set
Actual Time 7:39 AM MDT 7:33 PM MDT
Civil Twilight 7:10 AM MDT 8:02 PM MDT
Nautical Twilight 6:37 AM MDT 8:35 PM MDT
Astronomical Twilight 6:03 AM MDT 9:09 PM MDT
Moon 6:56 PM MDT (3/15) 6:54 AM MDT (3/15)
Length of Visible Light 12h 51m
Length of Day
11h 54m
Waxing Gibbous, 99% of the Moon is Illuminated
Mar 15
Waxing Gibbous
Mar 16
Full
Mar 23
Last Quarter
Mar 30
New
Apr 7
First Quarter

Hourly Weather History & Observations

Time (MDT) Temp. Windchill Dew Point Humidity Pressure Visibility Wind Dir Wind Speed Gust Speed Precip Events Conditions
12:53 AM 36.0 °F 33.3 °F 30.0 °F 79% 30.09 in 10.0 mi ENE 3.5 mph - N/A   Overcast
1:53 AM 36.0 °F 33.3 °F 28.0 °F 73% 30.10 in 10.0 mi NNW 3.5 mph - 0.00 in   Overcast
2:53 AM 33.1 °F - 21.9 °F 64% 30.13 in 10.0 mi Calm Calm - N/A   Clear
3:53 AM 33.1 °F 26.9 °F 19.9 °F 59% 30.15 in 10.0 mi Variable 6.9 mph - N/A   Clear
4:53 AM 28.9 °F 22.8 °F 21.0 °F 72% 30.18 in 10.0 mi ENE 5.8 mph - N/A   Clear
5:53 AM 30.9 °F 26.2 °F 18.0 °F 59% 30.20 in 10.0 mi NW 4.6 mph - N/A   Clear
6:53 AM 28.0 °F - 17.1 °F 63% 30.26 in 10.0 mi Calm Calm - N/A   Clear
7:53 AM 27.0 °F - 17.1 °F 66% 30.31 in 10.0 mi Calm Calm - N/A   Clear
8:53 AM 34.0 °F 28.8 °F 17.1 °F 50% 30.32 in 10.0 mi Variable 5.8 mph - N/A   Clear
9:53 AM 37.9 °F 30.9 °F 17.1 °F 43% 30.35 in 10.0 mi North 10.4 mph 20.7 mph N/A   Clear
10:53 AM 41.0 °F 34.7 °F 16.0 °F 36% 30.36 in 10.0 mi NNW 10.4 mph 17.3 mph N/A   Clear
11:53 AM 43.0 °F 37.7 °F 12.9 °F 30% 30.38 in 10.0 mi North 9.2 mph - N/A   Clear
12:53 PM 44.1 °F 41.5 °F 12.0 °F 27% 30.39 in 10.0 mi NNW 4.6 mph - N/A   Clear
1:53 PM 46.9 °F - 10.9 °F 23% 30.39 in 10.0 mi WNW 10.4 mph - 0.00 in   Clear
2:53 PM 46.9 °F - 10.0 °F 22% 30.39 in 10.0 mi WSW 5.8 mph - N/A   Clear
3:53 PM 48.0 °F - 9.0 °F 21% 30.38 in 10.0 mi WSW 8.1 mph - 0.00 in   Clear
4:53 PM 48.9 °F - 6.1 °F 18% 30.39 in 10.0 mi North - - N/A   Clear
5:53 PM 48.9 °F - 8.1 °F 19% 30.38 in 10.0 mi South 6.9 mph - N/A   Clear
6:53 PM 48.9 °F - 9.0 °F 20% 30.39 in 10.0 mi South 6.9 mph - N/A   Overcast
7:53 PM 46.0 °F 42.5 °F 15.1 °F 29% 30.39 in 10.0 mi SSW 6.9 mph - N/A   Overcast
8:53 PM 44.1 °F 38.1 °F 16.0 °F 32% 30.40 in 10.0 mi SW 11.5 mph - N/A   Overcast
9:53 PM 41.0 °F 35.2 °F 17.1 °F 38% 30.39 in 10.0 mi South 9.2 mph - N/A   Clear
10:53 PM 42.1 °F 36.6 °F 16.0 °F 35% 30.40 in 10.0 mi South 9.2 mph - N/A   Overcast
11:53 PM 39.0 °F 32.8 °F 17.1 °F 41% 30.41 in 10.0 mi SSW 9.2 mph - N/A   Partly Cloudy